Aérodrome :
LOGIN :

S'inscrire | Disclaimer

   EN    FR    IT 

 










Légende :    VFR   VFR Marginal   IFR   IFR Intensif   IFR Très Intensif
Visi : 
Plafond : 
>= 8 km
>= 3000ft
5 à 8 km
1000 à 3000 ft
1500m à 5 km
500 à 1000 ft
800 à 1500m
200 à 500 ft
< 800m
< 200 ft
Symboles :   Orages  Brouillard  Fortes neiges  Fortes précipitations  Vent > 20 kt
SIGMETs :   Divers  Orages  Givrage  Turbulence  Onde Orograph.  Cendres Volcan.







- Altitude de l'aérodrome : 156 ft
- Code IATA : OMO


LQMO - Mostar

DERNIER METAR :
  • 201800Z 34006KT 9999 FEW038 SCT055 07/03 Q1013

METARs EXPIRÉS :
  • 201700Z 31003KT 290V350 9999 FEW040 SCT050 08/04 Q1013
  • 201600Z 28003KT 9999 FEW050 SCT090 09/04 Q1013

TAF TAF LQMO
Valide du 20 à 18h jusqu'au 21 à 18h UTC


201700Z 2018/2118 30005KT 9999 BKN040 TX08/2112Z TN04/2104Z
PROB40
TEMPO 2018/2024 4000 -RA BR
TEMPO 2100/2118 4000 RA
PROB40
TEMPO 2103/2118 36010KT
Pas de NOTAMs connus pour ce terrain.



MET'MAP, la Météo Aéronautique d'un coup d'oeil ! - Copyright ORBIFLY Décembre 2007 - Disclaimer

ORBIFLY MET'MAP TEAM :

Programmation & Développement : Alexandra Zaïnal
Conception & Développement : Baudouin d'Aumeries
Co-Programmation & Développement : Marc-Olivier Méhu
Soutien technique & logistique : Manuel Goepfert

Contact : metmap@orbifly.com




SOURCES & CREDITS :

   NOAA